Regional Weather Roundup
Issued by NWS

Home | Current Version | Previous Version | Graphics & Text | Print | Product List | Glossary Off
Versions: 1 2 3 4 5 6 7 8 9 10 11 12 13 14 15 16 17 18 19 20 21 22 23 24 25 26 27 28 29 30 31 32 33 34 35 36 37 38 39 40 41 42 43 44 45 46 47 48 49 50

000
ASUS45 KBOI 221410
RWRID
WEATHER ROUNDUP FOR IDAHO
NATIONAL WEATHER SERVICE BOISE ID
700 AM MST SAT NOV 22 2014

NOTE: "FAIR" INDICATES FEW OR NO CLOUDS BELOW 12000 FEET
WITH NO SIGNIFICANT WEATHER AND/OR OBSTRUCTIONS TO VISIBILITY

IDZ012-014-221500-
SOUTHWEST IDAHO


CITY           SKY/WX    TMP DP  RH WIND       PRES   REMARKS
BOISE          LGT RAIN  44  39  82 S5        29.70R
CALDWELL       NOT AVBL
MOUNTAIN HOME  LGT RAIN  42  42 100 SW14      29.70S
$$

IDZ016-017-221500-
SOUTHCENTRAL IDAHO


CITY           SKY/WX    TMP DP  RH WIND       PRES   REMARKS
BURLEY         LGT RAIN  43  37  79 S17       29.73F
JEROME         LGT RAIN  39  36  89 E8        29.72F WCI  33
TWIN FALLS     LGT RAIN  46  38  73 S15       29.71F
$$

IDZ019>023-221500-
SOUTHEAST IDAHO


CITY           SKY/WX    TMP DP  RH WIND       PRES   REMARKS
IDAHO FALLS    CLOUDY    35  33  92 S23       29.75F WCI  23
POCATELLO      LGT RAIN  36  34  92 VRB7      29.75F WCI  30
REXBURG        CLOUDY    33  31  92 S16G22    29.72F WCI  23
$$

IDZ006-010-011-018-031-032-221500-
CENTRAL IDAHO MOUNTAINS


CITY           SKY/WX    TMP DP  RH WIND       PRES   REMARKS
MCCALL         FLURRIES  36  34  92 W3        29.63R
HAILEY         LGT SNOW  32  32 100 SE9       29.73F WCI  24
STANLEY          N/A     36  32  85 SE8       29.62F WCI  30
SALMON         MOCLDY    41  34  75 S17       29.51F
CHALLIS        LGT RAIN  34  33  96 SW3       29.57F
$$

IDZ002-004-006-007-026-221500-
NORTHERN IDAHO


CITY           SKY/WX    TMP DP  RH WIND       PRES   REMARKS
LEWISTON       CLOUDY    48  37  65 S5        29.60R
LOWELL           N/A     36  35  96 CALM      29.62S
COEUR D`ALENE  MOCLDY    37  32  81 W12       29.52R WCI  30
MULLAN PASS    LGT SNOW  29  26  89 W12G25    29.42R FOG     WCI  19
$$


USA.gov is the U.S. government's official web portal to all federal, state and local government web resources and services.